1521270001.18,19746,8.56,72014.3,-2.89,-5.19,-5.19,0,*5E
1521270002.46,19747,8.56,72010.0,-2.89,-5.19,-5.23,0,*56
1521270003.73,19748,8.56,72014.8,-2.91,-5.23,-5.23,0,*59
1521270004.99,19749,8.56,72018.0,-2.91,-5.23,-5.27,0,*5C
1521270006.27,19750,8.56,72010.5,-2.89,-5.23,-5.23,0,*59
1521270007.55,19751,8.56,72010.8,-2.89,-5.19,-5.19,0,*58
1521270008.82,19752,8.5,72016.0,-2.89,-5.19,-5.19,0,*5B
1521270010.1,19753,8.56,72020.5,-2.89,-5.19,-5.23,0,*53
1521270011.38,19754,8.56,72020.5,-2.89,-5.19,-5.23,0,*54
1521270012.64,19755,8.56,72022.0,-2.87,-5.19,-5.23,0,*5B
1521270013.9,19756,8.56,72016.0,-2.87,-5.23,-5.23,0,*51
1521270015.18,19757,8.56,72016.3,-2.89,-5.19,-5.23,0,*57
1521270016.46,19758,8.56,72020.3,-2.89,-5.23,-5.23,0,*51
1521270017.72,19759,8.56,72014.3,-2.87,-5.19,-5.23,0,*57
1521270018.98,19760,8.56,72014.8,-2.87,-5.19,-5.19,0,*54
1521270020.25,19761,8.56,72010.3,-2.89,-5.19,-5.19,0,*5B
1521270021.5,19762,8.5,72008.8,-2.87,-5.11,-5.19,0,*5E
1521270022.75,19763,8.56,72006.8,-2.87,-5.11,-5.11,0,*57
1521270024.0,19764,8.56,72008.3,-2.87,-5.11,-5.19,0,*58
1521270025.25,19765,8.56,72018.5,-2.87,-5.11,-5.19,0,*59
1521270026.52,19766,8.56,72018.8,-2.89,-5.11,-5.19,0,*54
1521270027.77,19767,8.56,72018.8,-2.87,-5.11,-5.19,0,*5B
1521270029.02,19768,8.56,72016.3,-2.87,-5.11,-5.19,0,*54
1521270030.27,19769,8.56,72018.3,-2.87,-5.11,-5.19,0,*55
1521270031.52,19770,8.5,72016.5,-2.87,-5.11,-5.19,0,*5D
1521270032.78,19771,8.56,72016.5,-2.87,-5.11,-5.23,0,*55
1521270034.03,19772,8.56,72020.5,-2.87,-5.11,-5.19,0,*5F
1521270035.3,19773,8.56,72020.5,-2.89,-5.19,-5.19,0,*58
1521270036.56,19774,8.56,72018.5,-2.87,-5.23,-5.19,0,*58
1521270037.82,19775,8.5,72022.8,-2.87,-5.23,-5.23,0,*50
1521270039.1,19776,8.56,72022.0,-2.85,-5.15,-5.15,0,*51
1521270040.38,19777,8.56,72026.3,-2.85,-5.15,-5.15,0,*50
1521270041.66,19778,8.56,72024.3,-2.85,-5.15,-5.15,0,*5F
1521270042.95,19779,8.56,72020.0,-2.85,-5.15,-5.19,0,*52
1521270044.23,19780,8.56,72022.0,-2.85,-5.19,-5.19,0,*58
1521270045.51,19781,8.56,72020.8,-2.85,-5.07,-5.19,0,*56
1521270046.79,19782,8.56,72018.5,-2.85,-5.15,-5.19,0,*56
1521270048.07,19783,8.56,72022.0,-2.85,-5.15,-5.15,0,*5B
1521270049.36,19784,8.56,72022.8,-2.85,-5.15,-5.07,0,*5F
1521270050.64,19785,8.56,72018.5,-2.85,-5.15,-5.15,0,*5D
1521270051.92,19786,8.56,72016.5,-2.85,-5.15,-5.15,0,*5E
1521270053.2,19787,8.56,72020.8,-2.85,-5.19,-5.19,0,*5F
1521270054.45,19788,8.56,72020.3,-2.83,-5.15,-5.15,0,*56
1521270055.7,19789,8.56,72022.0,-2.83,-5.15,-5.15,0,*57
1521270056.95,19790,8.56,72020.0,-2.83,-5.15,-5.15,0,*5F
1521270058.23,19791,8.56,72024.8,-2.85,-5.15,-5.19,0,*54
1521270059.49,19792,8.56,72016.0,-2.83,-5.15,-5.19,0,*51
1521270060.74,19793,8.56,72024.5,-2.83,-5.15,-5.15,0,*5C
1521270061.99,19794,8.56,72026.8,-2.83,-5.15,-5.15,0,*5B
1521270063.24,19795,8.56,72024.0,-2.83,-5.19,-5.19,0,*5A
1521270064.49,19796,8.56,72026.3,-2.83,-5.15,-5.19,0,*55
1521270065.74,19797,8.56,72022.0,-2.83,-5.19,-5.19,0,*58
1521270066.99,19798,8.56,72018.5,-2.83,-5.19,-5.19,0,*57
1521270068.24,19799,8.56,72016.0,-2.83,-5.19,-5.19,0,*56
1521270069.49,19800,8.56,72016.8,-2.83,-5.19,-5.19,0,*59
1521270070.74,19801,8.56,72010.8,-2.83,-5.19,-5.19,0,*58
1521270071.99,19802,8.56,72010.0,-2.83,-5.15,-5.19,0,*57
1521270073.24,19803,8.56,72018.3,-2.83,-5.19,-5.19,0,*5A
1521270074.49,19804,8.56,72022.5,-2.83,-5.15,-5.15,0,*5D
1521270075.74,19805,8.5,72020.8,-2.83,-5.15,-5.15,0,*5C
1521270076.99,19806,8.56,72022.0,-2.83,-5.19,-5.19,0,*5F
1521270078.27,19807,8.56,72018.5,-2.81,-5.15,-5.15,0,*5C
1521270079.54,19808,8.56,72024.0,-2.81,-5.11,-5.15,0,*57
1521270080.81,19809,8.56,72020.8,-2.81,-5.11,-5.15,0,*56
1521270082.08,19810,8.56,72020.0,-2.81,-5.15,-5.11,0,*5E
1521270083.33,19811,8.56,72022.5,-2.79,-5.11,-5.11,0,*5C
1521270084.58,19812,8.56,72018.5,-2.83,-5.19,-5.19,0,*5A
1521270085.85,19813,8.56,72020.0,-2.81,-5.15,-5.15,0,*59
1521270087.11,19814,8.56,72024.0,-2.79,-5.11,-5.07,0,*5E
1521270088.36,19815,8.56,72026.0,-2.79,-5.07,-5.11,0,*5F
1521270089.61,19816,8.56,72022.0,-2.79,-5.11,-5.11,0,*5B
1521270090.88,19817,8.56,72022.8,-2.81,-5.15,-5.15,0,*5D
1521270092.13,19818,8.56,72024.8,-2.79,-5.11,-5.11,0,*55
1521270093.38,19819,8.56,72022.0,-2.79,-5.11,-5.11,0,*54
1521270094.66,19820,8.56,72020.8,-2.81,-5.15,-5.15,0,*59
1521270095.9,19821,8.56,72022.3,-2.79,-5.11,-5.11,0,*5F
1521270097.18,19822,8.56,72022.5,-2.81,-5.15,-5.15,0,*5B
1521270098.45,19823,8.56,72012.3,-2.81,-5.11,-5.15,0,*5E
1521270099.72,19824,8.56,72014.5,-2.81,-5.15,-5.15,0,*5D
1521270100.97,19825,8.56,72022.8,-2.79,-5.11,-5.11,0,*5B
1521270102.25,19826,8.56,72020.5,-2.81,-5.15,-5.15,0,*5F
1521270103.5,19827,8.56,72024.0,-2.79,-5.07,-5.11,0,*5E
1521270104.75,19828,8.56,72018.5,-2.79,-5.07,-5.11,0,*51
1521270106.0,19829,8.56,72014.3,-2.79,-5.11,-5.11,0,*57
1521270107.25,19830,8.56,72018.0,-2.79,-5.11,-5.11,0,*5F
1521270108.52,19831,8.56,72014.8,-2.77,-5.11,-5.11,0,*50
1521270109.77,19832,8.56,72012.5,-2.79,-5.11,-5.11,0,*5D
1521270111.02,19833,8.56,72018.8,-2.79,-5.11,-5.11,0,*5C
1521270112.29,19834,8.56,72020.0,-2.81,-5.15,-5.15,0,*5C
1521270113.54,19835,8.56,72022.8,-2.79,-5.11,-5.11,0,*5A
1521270114.79,19836,8.56,72020.8,-2.79,-5.11,-5.11,0,*59
1521270116.04,19837,8.56,72020.5,-2.79,-5.11,-5.11,0,*58
1521270117.29,19838,8.56,72018.0,-2.79,-5.11,-5.11,0,*57
1521270118.54,19839,8.56,72024.0,-2.79,-5.11,-5.11,0,*56
1521270119.78,19840,8.56,72020.0,-2.79,-5.11,-5.11,0,*58
1521270121.03,19841,8.56,72022.3,-2.79,-5.11,-5.19,0,*51
1521270122.28,19842,8.56,72024.0,-2.79,-5.11,-5.19,0,*52
1521270123.55,19843,8.56,72022.0,-2.77,-5.11,-5.11,0,*55
1521270124.83,19844,8.56,72018.8,-2.77,-5.11,-5.11,0,*52
1521270126.07,19845,8.56,72018.3,-2.79,-5.11,-5.11,0,*5D
1521270127.35,19846,8.56,72014.0,-2.77,-5.07,-5.11,0,*57
1521270128.62,19847,8.56,72012.3,-2.77,-5.11,-5.11,0,*51
1521270129.9,19848,8.56,72008.8,-2.77,-5.11,-5.11,0,*5E
1521270131.17,19849,8.56,72016.3,-2.77,-5.07,-5.11,0,*58
1521270132.44,19850,8.56,72016.5,-2.77,-5.11,-5.11,0,*57
1521270133.72,19851,8.56,72014.5,-2.77,-5.11,-5.11,0,*56
1521270135.0,19852,8.56,72016.0,-2.75,-5.07,-5.07,0,*57
1521270136.27,19853,8.56,72010.8,-2.77,-5.11,-5.11,0,*54
1521270137.55,19854,8.56,72008.5,-2.77,-5.11,-5.11,0,*53
1521270138.82,19855,8.56,72014.0,-2.77,-5.11,-5.11,0,*52
1521270140.1,19856,8.56,72012.0,-2.75,-5.03,-5.07,0,*57
1521270141.38,19857,8.56,72020.5,-2.77,-5.11,-5.11,0,*50
1521270142.66,19858,8.56,72022.3,-2.75,-5.07,-5.03,0,*59
1521270143.93,19859,8.56,72018.0,-2.77,-5.11,-5.11,0,*5E
1521270145.22,19860,8.56,72020.5,-2.75,-5.07,-5.07,0,*56
1521270146.5,19861,8.56,72016.3,-2.75,-5.07,-5.11,0,*50
1521270147.79,19862,8.56,72018.8,-2.75,-5.03,-5.07,0,*50
1521270149.08,19863,8.56,72022.3,-2.75,-5.07,-5.03,0,*51
1521270150.36,19864,8.56,72020.0,-2.75,-5.07,-5.07,0,*52
1521270151.65,19865,8.56,72018.3,-2.75,-5.07,-5.07,0,*53
1521270152.94,19866,8.56,72014.3,-2.75,-5.07,-5.07,0,*50
1521270154.22,19867,8.56,72016.5,-2.75,-5.07,-5.07,0,*51
1521270155.51,19868,8.56,72016.5,-2.75,-5.07,-5.07,0,*5E
1521270156.8,19869,8.56,72018.3,-2.75,-5.07,-5.07,0,*5F
1521270158.09,19870,8.56,72024.0,-2.75,-5.07,-5.07,0,*57
1521270159.37,19871,8.56,72030.5,-2.75,-5.07,-5.03,0,*52
1521270160.66,19872,8.56,72020.5,-2.75,-5.03,-5.07,0,*51
1521270161.95,19873,8.56,72024.3,-2.75,-5.07,-5.07,0,*54
1521270163.23,19874,8.56,72028.5,-2.75,-5.07,-5.07,0,*53
1521270164.52,19875,8.56,72024.8,-2.75,-5.03,-5.07,0,*56
1521270165.81,19876,8.56,72022.8,-2.75,-5.03,-5.07,0,*55
1521270167.06,19877,8.56,72022.3,-2.73,-5.07,-5.03,0,*52
1521270168.32,19878,8.56,72022.8,-2.73,-5.07,-5.07,0,*59
1521270169.58,19879,8.56,72024.0,-2.73,-5.07,-5.07,0,*58
1521270170.83,19880,8.56,72030.5,-2.73,-5.03,-5.07,0,*5A
1521270172.09,19881,8.56,72024.3,-2.73,-5.07,-5.15,0,*5C
1521270173.34,19882,8.56,72026.8,-2.73,-5.07,-5.15,0,*5F
1521270174.6,19883,8.56,72020.5,-2.73,-5.07,-5.15,0,*5E
1521270175.86,19884,8.56,72028.5,-2.69,-5.03,-5.11,0,*52
1521270177.11,19885,8.56,72028.0,-2.73,-5.07,-5.07,0,*5B
1521270178.34,19886,8.56,72022.0,-2.69,-5.03,-4.99,0,*51
1521270179.6,19887,8.56,72026.0,-2.69,-5.07,-5.03,0,*56
1521270180.83,19888,8.56,72022.8,-2.69,-4.99,-5.03,0,*5F
1521270182.09,19889,8.56,72026.3,-2.73,-5.07,-5.07,0,*57
1521270183.35,19890,8.56,72026.8,-2.73,-5.07,-5.07,0,*5F
1521270184.61,19891,8.56,72030.8,-2.69,-5.03,-5.03,0,*55
1521270185.87,19892,8.56,72020.8,-2.69,-5.03,-5.03,0,*56
1521270187.14,19893,8.56,72020.0,-2.69,-5.03,-5.03,0,*57
1521270188.37,19894,8.56,72022.3,-2.69,-4.99,-5.03,0,*52
1521270189.63,19895,8.56,72022.0,-2.69,-5.03,-5.03,0,*51
1521270190.89,19896,8.56,72022.0,-2.69,-5.03,-5.03,0,*52
1521270192.12,19897,8.56,72022.5,-2.69,-4.99,-5.03,0,*51
1521270193.35,19898,8.56,72024.0,-2.69,-4.99,-5.03,0,*5E
1521270194.6,19899,8.56,72026.5,-2.73,-5.03,-5.07,0,*52
1521270195.85,19900,8.56,72020.8,-2.67,-4.99,-5.03,0,*50
1521270197.14,19901,8.56,72020.3,-2.67,-5.03,-5.03,0,*53
1521270198.42,19902,8.56,72018.8,-2.67,-5.03,-5.03,0,*50
1521270199.7,19903,8.56,72018.3,-2.67,-5.03,-5.03,0,*51
1521270200.98,19904,8.56,72014.0,-2.67,-5.03,-5.03,0,*56
1521270202.23,19905,8.56,72004.5,-2.67,-5.03,-4.99,0,*55
1521270203.52,19906,8.56,72008.5,-2.67,-5.03,-5.03,0,*54
1521270204.8,19907,8.56,72010.3,-2.67,-5.03,-5.03,0,*55
1521270205.99,19908,8.56,72010.5,-2.65,-4.99,-4.99,0,*58
1521270207.27,19909,8.56,72010.0,-2.67,-5.03,-5.03,0,*5B
1521270208.55,19910,8.56,72004.8,-2.67,-5.03,-5.03,0,*53
1521270209.84,19911,8.56,71996.3,-2.67,-5.03,-5.03,0,*52
1521270211.05,19912,8.56,72000.0,-2.63,-4.99,-4.99,0,*55
1521270212.34,19913,8.56,72002.8,-2.67,-5.03,-5.03,0,*50
1521270213.52,19914,8.56,72012.3,-2.65,-4.99,-4.99,0,*55
1521270214.81,19915,8.56,72014.3,-2.67,-5.03,-5.03,0,*56
1521270216.0,19916,8.56,72014.8,-2.65,-4.99,-4.99,0,*57
1521270217.18,19917,8.56,72018.5,-2.65,-4.99,-4.99,0,*56
1521270218.37,19918,8.56,72008.5,-2.65,-4.99,-4.99,0,*59
1521270219.56,19919,8.56,72012.0,-2.65,-4.99,-4.99,0,*58
1521270220.75,19920,8.56,72020.5,-2.65,-4.99,-4.99,0,*52
1521270221.94,19921,8.56,72022.0,-2.65,-4.99,-4.99,0,*53
1521270223.13,19922,8.56,72010.5,-2.65,-4.99,-4.99,0,*50
1521270224.32,19923,8.56,72010.8,-2.65,-4.99,-4.99,0,*51
1521270225.53,19924,8.56,72008.5,-2.65,-4.93,-4.99,0,*5C
1521270226.75,19925,8.56,72016.8,-2.63,-4.99,-4.99,0,*51
1521270227.99,19926,8.56,72022.0,-2.61,-4.93,-5.03,0,*58
1521270229.24,19927,8.56,72018.8,-2.63,-4.99,-5.07,0,*55
1521270230.53,19928,8.56,72020.8,-2.63,-5.07,-5.07,0,*5C
1521270231.74,19929,8.56,72018.5,-2.63,-4.99,-4.99,0,*5D
1521270232.96,19930,8.56,72012.3,-2.63,-4.99,-4.99,0,*55
1521270234.2,19931,8.56,72018.0,-2.61,-4.93,-5.03,0,*5E
1521270235.45,19932,8.56,72020.3,-2.61,-4.93,-5.03,0,*5D
1521270236.69,19933,8.56,72020.3,-2.61,-4.93,-4.93,0,*54
1521270237.9,19934,8.56,72018.5,-2.63,-4.99,-4.99,0,*51
1521270239.12,19935,8.56,72018.0,-2.63,-4.99,-4.99,0,*50
1521270240.34,19936,8.56,72018.8,-2.63,-4.99,-4.99,0,*53
1521270241.57,19937,8.56,72016.3,-2.61,-4.93,-4.93,0,*50
1521270242.82,19938,8.56,72022.0,-2.61,-4.93,-5.03,0,*57
1521270244.08,19939,8.56,72022.0,-2.61,-5.03,-5.03,0,*5E
1521270245.36,19940,8.56,72012.3,-2.63,-5.07,-5.07,0,*52
1521270246.62,19941,8.56,72014.0,-2.61,-5.03,-5.03,0,*51
1521270247.87,19942,8.56,72012.0,-2.61,-5.03,-5.03,0,*52
1521270249.16,19943,8.56,72016.5,-2.59,-5.03,-5.03,0,*58
1521270250.41,19944,8.56,72022.3,-2.61,-5.03,-5.03,0,*54
1521270251.67,19945,8.56,72022.0,-2.61,-5.07,-5.07,0,*55
1521270252.95,19946,8.56,72012.3,-2.59,-5.03,-5.03,0,*5D
1521270254.23,19947,8.56,72020.3,-2.63,-5.07,-5.03,0,*51
1521270255.49,19948,8.56,72018.5,-2.61,-5.03,-5.03,0,*58
1521270256.75,19949,8.56,72018.0,-2.61,-5.03,-5.03,0,*59
1521270258.0,19950,8.56,72016.0,-2.61,-5.03,-5.03,0,*51
1521270259.26,19951,8.56,72014.8,-2.61,-5.07,-5.07,0,*50
1521270260.52,19952,8.56,72010.5,-2.61,-5.03,-5.03,0,*53
1521270261.77,19953,8.56,72012.8,-2.61,-5.03,-5.03,0,*52
1521270263.03,19954,8.56,72014.8,-2.61,-5.03,-5.07,0,*51
1521270264.29,19955,8.56,72012.0,-2.61,-5.03,-5.03,0,*54
1521270265.54,19956,8.56,72010.8,-2.61,-5.03,-5.03,0,*57
1521270266.8,19957,8.56,72012.3,-2.61,-5.03,-5.07,0,*52
1521270268.06,19958,8.56,72012.5,-2.61,-5.03,-5.07,0,*5D
1521270269.34,19959,8.56,72008.5,-2.59,-5.03,-5.03,0,*53
1521270270.62,19960,8.56,72012.5,-2.59,-5.03,-5.03,0,*59
1521270271.87,19961,8.56,72020.0,-2.57,-5.03,-5.07,0,*52
1521270273.16,19962,8.56,72026.5,-2.59,-5.03,-5.03,0,*5B
1521270274.44,19963,8.56,72022.5,-2.59,-5.03,-5.07,0,*5E
1521270275.63,19964,8.56,72026.3,-2.57,-4.99,-4.99,0,*53
1521270276.81,19965,8.56,72022.8,-2.57,-4.99,-4.99,0,*52
1521270278.09,19966,8.56,72018.0,-2.59,-5.03,-5.03,0,*5F
1521270279.31,19967,8.56,72018.5,-2.57,-4.99,-5.03,0,*52
1521270280.5,19968,8.56,72022.5,-2.57,-4.99,-4.99,0,*5F
1521270281.78,19969,8.56,72026.0,-2.59,-5.03,-5.03,0,*50
1521270282.97,19970,8.56,72020.5,-2.57,-4.99,-4.99,0,*56
1521270284.22,19971,8.56,72018.5,-2.57,-5.03,-5.03,0,*57
1521270285.41,19972,8.56,72016.0,-2.57,-4.99,-4.99,0,*54
1521270286.59,19973,8.56,72014.0,-2.57,-4.99,-4.99,0,*55
1521270287.78,19974,8.56,72014.5,-2.57,-4.99,-4.99,0,*52
1521270288.96,19975,8.56,72014.8,-2.57,-4.99,-4.99,0,*53
1521270290.18,19976,8.56,72014.5,-2.57,-4.99,-5.03,0,*52
1521270291.37,19977,8.56,72014.0,-2.57,-4.99,-4.99,0,*51
1521270292.56,19978,8.56,72016.0,-2.57,-4.99,-4.99,0,*5E
1521270293.74,19979,8.56,72020.0,-2.57,-4.99,-4.99,0,*5F
1521270294.93,19980,8.56,72022.8,-2.57,-4.99,-4.99,0,*59
1521270296.11,19981,8.56,72022.8,-2.57,-4.99,-4.99,0,*58
1521270297.33,19982,8.56,72020.8,-2.57,-4.99,-5.03,0,*59
1521270298.52,19983,8.56,72016.8,-2.57,-4.99,-4.99,0,*5A
1521270299.7,19984,8.56,72020.8,-2.57,-4.99,-4.99,0,*5D
1521270300.96,19985,8.56,72026.5,-2.57,-5.03,-5.03,0,*5C
1521270302.18,19986,8.56,72026.5,-2.57,-5.03,-4.99,0,*5D
1521270303.39,19987,8.56,72030.8,-2.57,-4.99,-5.03,0,*5C
1521270304.63,19988,8.56,72028.3,-2.55,-4.93,-4.99,0,*59
1521270305.89,19989,8.56,72022.0,-2.55,-4.93,-4.93,0,*52
1521270307.16,19990,8.56,72018.5,-2.55,-4.93,-4.93,0,*5A
1521270308.42,19991,8.56,72022.3,-2.55,-4.93,-4.93,0,*5B
1521270309.65,19992,8.56,72022.5,-2.55,-4.93,-4.99,0,*52
1521270310.89,19993,8.56,72022.5,-2.55,-4.99,-4.93,0,*53
1521270312.16,19994,8.56,72014.8,-2.55,-4.93,-4.93,0,*5E
1521270313.42,19995,8.56,72016.3,-2.55,-4.93,-4.93,0,*5F
1521270314.66,19996,8.56,72026.3,-2.55,-4.99,-4.93,0,*56
1521270315.87,19997,8.56,72022.3,-2.53,-4.93,-4.99,0,*51
1521270317.13,19998,8.56,72028.3,-2.55,-4.93,-4.93,0,*52
1521270318.39,19999,8.56,72028.3,-2.55,-4.93,-4.93,0,*53
1521270319.66,20000,8.56,72026.5,-2.55,-4.93,-4.93,0,*50
1521270320.89,20001,8.56,72020.0,-2.53,-4.93,-4.93,0,*57
1521270322.13,20002,8.56,72022.5,-2.55,-4.99,-4.93,0,*58
1521270323.37,20003,8.56,72014.0,-2.53,-4.93,-4.93,0,*55
1521270324.63,20004,8.56,72010.0,-2.55,-4.93,-4.93,0,*54
1521270325.87,20005,8.56,72012.5,-2.53,-4.93,-4.93,0,*53
1521270327.11,20006,8.56,72014.3,-2.55,-4.93,-4.99,0,*5C
1521270328.32,20007,8.56,71988.8,-2.53,-4.99,-4.93,0,*5B
1521270329.54,20008,8.56,72002.8,-2.53,-4.93,-4.99,0,*54
1521270330.72,20009,8.56,72010.8,-2.53,-4.99,-4.99,0,*5F
1521270331.99,20010,8.56,72010.5,-2.55,-4.93,-4.93,0,*51
1521270333.2,20011,8.56,72014.3,-2.53,-4.93,-4.99,0,*5C
1521270334.44,20012,8.56,72014.3,-2.53,-4.93,-4.93,0,*55
1521270335.67,20013,8.56,72014.3,-2.53,-4.93,-4.93,0,*54
1521270336.89,20014,8.56,72020.0,-2.53,-4.93,-4.99,0,*59
1521270338.12,20015,8.56,72014.5,-2.53,-4.93,-4.93,0,*52
1521270339.34,20016,8.56,72018.0,-2.53,-4.93,-4.99,0,*5B
1521270340.57,20017,8.56,72016.5,-2.53,-4.93,-4.93,0,*50
1521270341.76,20018,8.56,72016.8,-2.53,-4.99,-4.99,0,*5F
1521270343.0,20019,8.56,72016.0,-2.55,-4.99,-4.93,0,*52
1521270344.22,20020,8.56,72016.3,-2.53,-4.99,-4.93,0,*5E
1521270345.49,20021,8.56,72016.3,-2.51,-4.89,-4.89,0,*57
1521270346.76,20022,8.56,72012.0,-2.51,-4.89,-4.89,0,*54
1521270348.0,20023,8.56,72020.0,-2.49,-4.93,-4.89,0,*57
1521270349.23,20024,8.56,72022.0,-2.49,-4.93,-4.93,0,*5B
1521270350.5,20025,8.56,72020.3,-2.51,-4.89,-4.93,0,*58
1521270351.77,20026,8.56,72020.0,-2.51,-4.89,-4.93,0,*5B
1521270353.04,20027,8.56,72022.8,-2.51,-4.89,-4.93,0,*5A
1521270354.28,20028,8.56,72020.5,-2.49,-4.89,-4.89,0,*57
1521270355.55,20029,8.56,72020.0,-2.51,-4.89,-4.89,0,*5F
1521270356.82,20030,8.56,72022.8,-2.51,-4.89,-4.93,0,*5C
1521270358.09,20031,8.56,72018.3,-2.51,-4.89,-4.89,0,*56
1521270359.37,20032,8.56,72016.0,-2.51,-4.89,-4.89,0,*55
1521270360.61,20033,8.56,72020.0,-2.49,-4.89,-4.89,0,*5D
1521270361.88,20034,8.56,72020.8,-2.51,-4.89,-4.89,0,*53
1521270363.13,20035,8.56,72024.8,-2.49,-4.89,-4.89,0,*5B
1521270364.37,20036,8.56,72016.0,-2.49,-4.89,-4.89,0,*58
1521270365.64,20037,8.56,72014.0,-2.51,-4.89,-4.89,0,*50
1521270366.91,20038,8.56,72012.8,-2.51,-4.93,-4.89,0,*54
1521270368.15,20039,8.56,72016.0,-2.49,-4.89,-4.89,0,*57
1521270369.4,20040,8.56,72016.0,-2.49,-4.89,-4.89,0,*59
1521270370.64,20041,8.56,72014.3,-2.45,-4.85,-4.89,0,*58
1521270371.88,20042,8.56,72010.5,-2.45,-4.85,-4.89,0,*5B
1521270373.13,20043,8.56,72016.8,-2.45,-4.85,-4.85,0,*56
1521270374.37,20044,8.56,72016.5,-2.45,-4.85,-4.85,0,*51
1521270375.61,20045,8.56,72018.0,-2.45,-4.85,-4.85,0,*50
1521270376.86,20046,8.56,72018.5,-2.45,-4.89,-4.89,0,*53
1521270378.1,20047,8.56,72018.8,-2.45,-4.85,-4.85,0,*52
1521270379.34,20048,8.56,72022.5,-2.45,-4.85,-4.89,0,*51
1521270380.58,20049,8.56,72022.5,-2.45,-4.85,-4.85,0,*5C
1521270381.83,20050,8.56,72020.5,-2.45,-4.85,-4.89,0,*58
1521270383.07,20051,8.56,72026.5,-2.45,-4.85,-4.85,0,*55
1521270384.32,20052,8.56,72020.5,-2.45,-4.89,-4.89,0,*56
1521270385.56,20053,8.56,72016.3,-2.45,-4.85,-4.89,0,*5B
1521270386.8,20054,8.56,72004.3,-2.45,-4.85,-4.85,0,*50
1521270388.05,20055,8.56,72012.5,-2.45,-4.89,-4.89,0,*51
1521270389.3,20056,8.56,72016.3,-2.43,-4.85,-4.89,0,*58
1521270390.54,20057,8.56,72018.8,-2.45,-4.85,-4.85,0,*53
1521270391.79,20058,8.56,72020.3,-2.45,-4.89,-4.89,0,*5C
1521270393.04,20059,8.56,72016.3,-2.43,-4.89,-4.85,0,*57
1521270394.28,20060,8.56,72016.3,-2.45,-4.89,-4.89,0,*57
1521270395.53,20061,8.56,72014.8,-2.43,-4.85,-4.85,0,*50
1521270396.78,20062,8.56,72010.3,-2.43,-4.85,-4.85,0,*53
1521270398.02,20063,8.56,72016.8,-2.43,-4.85,-4.85,0,*52
1521270399.26,20064,8.56,72016.5,-2.45,-4.85,-4.89,0,*5F
1521270400.51,20065,8.56,72010.3,-2.43,-4.85,-4.89,0,*58
1521270401.76,20066,8.56,72010.8,-2.43,-4.89,-4.85,0,*5B
1521270403.01,20067,8.56,72016.0,-2.43,-4.85,-4.85,0,*56
1521270404.26,20068,8.56,72008.0,-2.43,-4.89,-4.93,0,*52
1521270405.51,20069,8.56,72006.0,-2.45,-4.89,-4.85,0,*52
1521270406.76,20070,8.56,72006.8,-2.43,-4.89,-4.89,0,*50
1521270408.01,20071,8.56,72014.8,-2.43,-4.89,-4.89,0,*51
1521270409.26,20072,8.56,72018.0,-2.43,-4.89,-4.85,0,*5E
1521270410.52,20073,8.56,72014.3,-2.43,-4.89,-4.89,0,*53
1521270411.76,20074,8.56,72016.0,-2.43,-4.85,-4.89,0,*58
1521270413.01,20075,8.56,72008.0,-2.43,-4.89,-4.89,0,*55
1521270414.29,20076,8.56,72010.0,-2.41,-4.81,-4.85,0,*50
1521270415.54,20077,8.56,72002.3,-2.43,-4.89,-4.89,0,*57
1521270416.78,20078,8.56,72006.0,-2.43,-4.85,-4.85,0,*58
1521270418.03,20079,8.56,72008.3,-2.43,-4.85,-4.89,0,*55
1521270419.28,20080,8.56,72012.5,-2.43,-4.89,-4.89,0,*5F
1521270420.53,20081,8.56,72020.3,-2.43,-4.85,-4.89,0,*52
1521270421.8,20082,8.56,72014.8,-2.41,-4.85,-4.85,0,*5F
1521270423.07,20083,8.56,72016.0,-2.41,-4.85,-4.81,0,*5A
1521270424.32,20084,8.56,72010.5,-2.39,-4.81,-4.85,0,*52
1521270425.59,20085,8.56,72014.8,-2.41,-4.85,-4.85,0,*58
1521270426.86,20086,8.56,72018.3,-2.41,-4.85,-4.85,0,*5B
1521270428.13,20087,8.56,72010.5,-2.41,-4.81,-4.81,0,*5A
1521270429.38,20088,8.56,72002.5,-2.39,-4.85,-4.81,0,*5E
1521270430.65,20089,8.56,72010.3,-2.41,-4.81,-4.85,0,*50
1521270431.92,20090,8.56,72010.0,-2.41,-4.85,-4.81,0,*58
1521270433.19,20091,8.56,72012.8,-2.41,-4.85,-4.85,0,*5D
1521270434.46,20092,8.56,72016.5,-2.41,-4.81,-4.85,0,*5A
1521270435.71,20093,8.56,72016.0,-2.39,-4.85,-4.85,0,*50
1521270436.98,20094,8.56,72012.5,-2.41,-4.81,-4.81,0,*58
1521270438.23,20095,8.56,72004.3,-2.39,-4.81,-4.81,0,*56
1521270439.5,20096,8.56,72012.5,-2.41,-4.81,-4.85,0,*5E
1521270440.77,20097,8.56,72010.8,-2.41,-4.85,-4.81,0,*5F
1521270442.04,20098,8.56,72008.0,-2.41,-4.81,-4.85,0,*50
1521270443.29,20099,8.56,72006.0,-2.39,-4.81,-4.85,0,*5E
1521270444.54,20100,8.56,72010.5,-2.39,-4.81,-4.85,0,*5F
1521270445.79,20101,8.56,72014.0,-2.39,-4.81,-4.85,0,*5E
1521270447.05,20102,8.56,72010.3,-2.39,-4.81,-4.81,0,*59
1521270448.32,20103,8.56,72016.8,-2.37,-4.77,-4.81,0,*5F
1521270449.59,20104,8.56,72016.5,-2.37,-4.77,-4.81,0,*58
1521270450.86,20105,8.56,72022.3,-2.37,-4.81,-4.77,0,*59
1521270452.13,20106,8.56,72018.5,-2.37,-4.77,-4.81,0,*5A
1521270453.4,20107,8.56,72016.3,-2.37,-4.77,-4.77,0,*52
1521270454.65,20108,8.56,72018.5,-2.39,-4.85,-4.81,0,*57
1521270455.92,20109,8.56,72018.3,-2.37,-4.77,-4.81,0,*55
1521270457.19,20110,8.56,72018.0,-2.37,-4.77,-4.77,0,*54
1521270458.46,20111,8.56,72020.3,-2.37,-4.81,-4.81,0,*55
1521270459.73,20112,8.56,72010.8,-2.37,-4.77,-4.77,0,*56
1521270460.97,20113,8.56,72014.5,-2.35,-4.73,-4.77,0,*51
1521270462.21,20114,8.63,72018.0,-2.35,-4.77,-4.77,0,*52
1521270463.45,20115,8.56,72016.8,-2.35,-4.77,-4.77,0,*53
1521270464.7,20116,8.56,72016.5,-2.35,-4.73,-4.77,0,*54
1521270465.94,20117,8.63,72016.8,-2.35,-4.73,-4.77,0,*55
1521270467.21,20118,8.63,72016.8,-2.37,-4.77,-4.81,0,*55
1521270468.49,20119,8.56,72014.0,-2.37,-4.81,-4.81,0,*5D
1521270469.73,20120,8.56,72008.5,-2.35,-4.77,-4.77,0,*55
1521270471.0,20121,8.56,72014.8,-2.37,-4.81,-4.81,0,*56
1521270472.25,20122,8.56,72016.5,-2.35,-4.73,-4.73,0,*57
1521270473.49,20123,8.56,72014.5,-2.35,-4.77,-4.77,0,*56
1521270474.73,20124,8.56,72018.0,-2.35,-4.77,-4.77,0,*51
1521270475.97,20125,8.56,72014.5,-2.35,-4.77,-4.77,0,*50
1521270477.21,20126,8.56,72022.0,-2.35,-4.77,-4.73,0,*57
1521270478.46,20127,8.56,72016.8,-2.35,-4.77,-4.81,0,*5B
1521270479.7,20128,8.56,72016.0,-2.35,-4.77,-4.81,0,*54
1521270480.95,20129,8.56,72014.5,-2.35,-4.73,-4.77,0,*58
1521270482.19,20130,8.56,72012.3,-2.35,-4.77,-4.77,0,*54
1521270483.43,20131,8.56,72018.8,-2.35,-4.77,-4.77,0,*55
1521270484.67,20132,8.63,72018.8,-2.35,-4.81,-4.77,0,*5F
1521270485.94,20133,8.56,72016.5,-2.33,-4.77,-4.77,0,*51
1521270487.21,20134,8.56,72014.8,-2.33,-4.77,-4.81,0,*5F
1521270488.48,20135,8.56,72014.5,-2.33,-4.77,-4.81,0,*5E
1521270489.73,20136,8.63,72012.8,-2.31,-4.73,-4.77,0,*52
1521270491.0,20137,8.56,72008.5,-2.33,-4.77,-4.81,0,*5C
1521270492.27,20138,8.56,72004.0,-2.33,-4.81,-4.77,0,*53
1521270493.53,20139,8.56,72014.8,-2.33,-4.77,-4.73,0,*5F
1521270494.8,20140,8.56,72016.0,-2.33,-4.81,-4.77,0,*5C
1521270496.07,20141,8.63,72014.3,-2.33,-4.81,-4.77,0,*5D
1521270497.34,20142,8.56,72008.0,-2.33,-4.77,-4.77,0,*57
1521270498.61,20143,8.56,72006.5,-2.33,-4.81,-4.81,0,*56
1521270499.88,20144,8.63,72012.5,-2.33,-4.77,-4.81,0,*58
1521270501.13,20145,8.63,72016.0,-2.31,-4.77,-4.77,0,*52
1521270502.38,20146,8.56,72012.3,-2.31,-4.73,-4.77,0,*55
1521270503.62,20147,8.56,72008.5,-2.31,-4.77,-4.77,0,*50
1521270504.89,20148,8.56,71996.3,-2.33,-4.81,-4.81,0,*5D
1521270506.14,20149,8.56,72008.0,-2.31,-4.73,-4.73,0,*5E
1521270507.39,20150,8.56,72010.8,-2.31,-4.73,-4.73,0,*56
1521270508.63,20151,8.56,72008.5,-2.31,-4.77,-4.77,0,*57
1521270509.88,20152,8.56,72004.5,-2.31,-4.77,-4.77,0,*54
1521270511.15,20153,8.56,72006.3,-2.33,-4.81,-4.77,0,*5E
1521270512.41,20154,8.56,72008.3,-2.29,-4.77,-4.77,0,*5B
1521270513.69,20155,8.63,72018.0,-2.33,-4.81,-4.81,0,*51
1521270514.96,20156,8.56,72012.5,-2.33,-4.81,-4.77,0,*5B
1521270516.2,20157,8.63,72006.3,-2.31,-4.77,-4.77,0,*51
1521270517.44,20158,8.63,72008.8,-2.31,-4.77,-4.77,0,*5E
1521270518.69,20159,8.56,72002.0,-2.31,-4.69,-4.77,0,*50
1521270519.94,20160,8.56,72000.8,-2.31,-4.73,-4.77,0,*51
1521270521.18,20161,8.63,72004.8,-2.31,-4.73,-4.77,0,*50
1521270522.43,20162,8.56,72002.5,-2.31,-4.73,-4.85,0,*5E
1521270523.68,20163,8.63,72006.3,-2.31,-4.73,-4.77,0,*52
1521270524.93,20164,8.63,72014.0,-2.31,-4.73,-4.73,0,*51
1521270526.18,20165,8.56,72018.5,-2.31,-4.73,-4.77,0,*54
1521270527.45,20166,8.56,72008.5,-2.33,-4.77,-4.81,0,*58